Weather History for Provincetown, MA

Change the Weather History Date:

Monday, February 4, 2013

  Actual Average Record
Temperature  
Mean Temperature 27 °F -  
Max Temperature 30 °F 35 °F 48 °F (2003)
Min Temperature 24 °F 25 °F 10 °F (1955)
Degree Days  
Heating Degree Days 38    
Moisture  
Dew Point 14 °F    
Average Humidity 57    
Maximum Humidity 86    
Minimum Humidity 40    
Precipitation  
Precipitation 0.00 in - - ()
Sea Level Pressure  
Sea Level Pressure 29.79 in    
Wind  
Wind Speed 21 mph (WNW)    
Max Wind Speed 31 mph    
Max Gust Speed 38 mph    
Visibility 10 miles    
Events      
Averages and records for this station are not official NWS values.
T = Trace of Precipitation, MM = Missing Value Source: NWS Daily Summary

Daily Weather History Graph

Daily Weather History Graph

Search for Another Location

Airport:

Trip Planner

Search our weather history database for the weather conditions in past years. The results will help you decide how hot, cold, wet, or windy it might be!

Date:

Astronomy

Feb. 04, 2013 Rise Set
Actual Time 6:50 AM EST 4:59 PM EST
Civil Twilight 6:20 AM EST 5:29 PM EST
Nautical Twilight 5:47 AM EST 6:02 PM EST
Astronomical Twilight 5:15 AM EST 6:35 PM EST
Moon 1:23 AM EST (2/4) 11:19 AM EST (2/4)
Length of Visible Light 11h 08m
Length of Day
10h 09m
Last Quarter, 37% of the Moon is Illuminated
Feb 4
Last Quarter
Feb 10
New
Feb 17
First Quarter
Feb 25
Full
Mar 4
Last Quarter

Hourly Weather History & Observations

Time (EST) Temp. Windchill Dew Point Humidity Pressure Visibility Wind Dir Wind Speed Gust Speed Precip Events Conditions
12:15 AM 28.4 °F 15.4 °F 24.8 °F 86% 29.70 in 5.0 mi NW 19.6 mph 26.5 mph N/A   Overcast
12:35 AM 28.4 °F 16.2 °F 23.0 °F 80% 29.70 in 5.0 mi NW 17.3 mph 25.3 mph N/A   Overcast
12:55 AM 28.4 °F 16.6 °F 21.2 °F 74% 29.70 in 6.0 mi NW 16.1 mph 24.2 mph N/A   Overcast
1:15 AM 28.4 °F 16.6 °F 23.0 °F 80% 29.70 in 6.0 mi NW 16.1 mph 21.9 mph N/A   Overcast
1:35 AM 28.4 °F 16.6 °F 21.2 °F 74% 29.71 in 10.0 mi NW 16.1 mph 25.3 mph N/A   Overcast
1:55 AM 26.6 °F 13.4 °F 23.0 °F 86% 29.71 in 5.0 mi NW 18.4 mph 25.3 mph N/A   Overcast
2:15 AM 28.4 °F 16.6 °F 21.2 °F 74% 29.71 in 10.0 mi NW 16.1 mph 23.0 mph N/A   Overcast
2:35 AM 28.4 °F 16.6 °F 21.2 °F 74% 29.70 in 10.0 mi NW 16.1 mph 23.0 mph N/A   Mostly Cloudy
2:55 AM 28.4 °F 15.8 °F 19.4 °F 69% 29.70 in 10.0 mi NW 18.4 mph 25.3 mph N/A   Overcast
3:15 AM 28.4 °F 16.2 °F 19.4 °F 69% 29.70 in 10.0 mi NW 17.3 mph 23.0 mph N/A   Overcast
3:35 AM 28.4 °F 17.0 °F 19.4 °F 69% 29.70 in 10.0 mi NW 15.0 mph 24.2 mph N/A   Overcast
3:55 AM 28.4 °F 15.8 °F 21.2 °F 74% 29.70 in 10.0 mi WNW 18.4 mph 25.3 mph N/A   Overcast
4:15 AM 26.6 °F 13.1 °F 23.0 °F 86% 29.70 in 10.0 mi WNW 19.6 mph 27.6 mph N/A   Mostly Cloudy
5:55 AM 26.6 °F 13.1 °F 17.6 °F 69% 29.73 in 10.0 mi West 19.6 mph 28.8 mph N/A   Mostly Cloudy
6:15 AM 26.6 °F 12.7 °F 17.6 °F 69% 29.73 in 10.0 mi WNW 20.7 mph 28.8 mph N/A   Mostly Cloudy
6:35 AM 26.6 °F 13.4 °F 15.8 °F 64% 29.74 in 10.0 mi WNW 18.4 mph 26.5 mph N/A   Scattered Clouds
6:55 AM 26.6 °F 12.0 °F 17.6 °F 69% 29.74 in 10.0 mi WNW 23.0 mph 28.8 mph N/A   Clear
7:15 AM 26.6 °F 12.4 °F 15.8 °F 64% 29.75 in 10.0 mi WNW 21.9 mph 31.1 mph N/A   Clear
7:35 AM 26.6 °F 12.4 °F 17.6 °F 69% 29.75 in 10.0 mi WNW 21.9 mph 31.1 mph N/A   Clear
7:55 AM 26.6 °F 11.4 °F 17.6 °F 69% 29.76 in 10.0 mi WNW 25.3 mph 33.4 mph N/A   Clear
8:15 AM 26.6 °F 12.7 °F 17.6 °F 69% 29.76 in 10.0 mi WNW 20.7 mph 29.9 mph N/A   Clear
8:35 AM 26.6 °F 12.4 °F 15.8 °F 64% 29.76 in 10.0 mi WNW 21.9 mph 31.1 mph N/A   Clear
8:55 AM 26.6 °F 12.0 °F 15.8 °F 64% 29.77 in 10.0 mi WNW 23.0 mph 34.5 mph N/A   Clear
9:15 AM 28.4 °F 13.5 °F 17.6 °F 64% 29.77 in 10.0 mi WNW 26.5 mph 32.2 mph N/A   Clear
9:35 AM 28.4 °F 14.4 °F 15.8 °F 59% 29.77 in 10.0 mi WNW 23.0 mph 29.9 mph N/A   Clear
9:55 AM 28.4 °F 14.1 °F 14.0 °F 55% 29.77 in 10.0 mi WNW 24.2 mph 33.4 mph N/A   Clear
10:15 AM 28.4 °F 13.5 °F 14.0 °F 55% 29.77 in 10.0 mi WNW 26.5 mph 36.8 mph N/A   Clear
10:35 AM 28.4 °F 13.5 °F 12.2 °F 51% 29.78 in 10.0 mi WNW 26.5 mph 36.8 mph N/A   Partly Cloudy
10:55 AM 28.4 °F 13.8 °F 15.8 °F 59% 29.77 in 10.0 mi West 25.3 mph 34.5 mph N/A   Partly Cloudy
11:15 AM 28.4 °F 13.5 °F 14.0 °F 55% 29.78 in 10.0 mi WNW 26.5 mph 34.5 mph N/A   Scattered Clouds
11:35 AM 28.4 °F 14.1 °F 12.2 °F 51% 29.77 in 10.0 mi WNW 24.2 mph 32.2 mph N/A   Scattered Clouds
11:55 AM 28.4 °F 14.1 °F 12.2 °F 51% 29.77 in 10.0 mi WNW 24.2 mph 29.9 mph N/A   Scattered Clouds
12:15 PM 30.2 °F 14.9 °F 12.2 °F 47% 29.77 in 10.0 mi WNW 31.1 mph 38.0 mph N/A   Mostly Cloudy
12:35 PM 30.2 °F 16.2 °F 12.2 °F 47% 29.77 in 10.0 mi WNW 25.3 mph 35.7 mph N/A   Mostly Cloudy
12:55 PM 30.2 °F 17.1 °F 12.2 °F 47% 29.76 in 10.0 mi West 21.9 mph 33.4 mph N/A   Mostly Cloudy
1:15 PM 30.2 °F 17.8 °F 10.4 °F 44% 29.77 in 10.0 mi WNW 19.6 mph 31.1 mph N/A   Mostly Cloudy
1:35 PM 30.2 °F 16.5 °F 8.6 °F 40% 29.77 in 10.0 mi WNW 24.2 mph 32.2 mph N/A   Partly Cloudy
1:55 PM 30.2 °F 16.8 °F 12.2 °F 47% 29.77 in 10.0 mi WNW 23.0 mph 32.2 mph N/A   Mostly Cloudy
2:15 PM 30.2 °F 16.8 °F 10.4 °F 44% 29.78 in 10.0 mi West 23.0 mph 29.9 mph N/A   Scattered Clouds
2:35 PM 30.2 °F 17.1 °F 10.4 °F 44% 29.79 in 10.0 mi West 21.9 mph 28.8 mph N/A   Scattered Clouds
2:55 PM 28.4 °F 15.1 °F 10.4 °F 47% 29.79 in 10.0 mi West 20.7 mph 28.8 mph N/A   Scattered Clouds
3:15 PM 30.2 °F 16.8 °F 10.4 °F 44% 29.80 in 10.0 mi WNW 23.0 mph 28.8 mph N/A   Mostly Cloudy
3:35 PM 30.2 °F 17.4 °F 10.4 °F 44% 29.80 in 10.0 mi West 20.7 mph 29.9 mph N/A   Overcast
4:15 PM 28.4 °F 14.4 °F 6.8 °F 40% 29.80 in 10.0 mi West 23.0 mph 33.4 mph N/A   Scattered Clouds
4:35 PM 28.4 °F 14.4 °F 6.8 °F 40% 29.81 in 10.0 mi West 23.0 mph 33.4 mph N/A   Mostly Cloudy
4:55 PM 28.4 °F 14.4 °F 8.6 °F 43% 29.81 in 10.0 mi West 23.0 mph 29.9 mph N/A   Mostly Cloudy
5:15 PM 28.4 °F 14.4 °F 8.6 °F 43% 29.81 in 10.0 mi West 23.0 mph 31.1 mph N/A   Partly Cloudy
5:35 PM 28.4 °F 13.8 °F 10.4 °F 47% 29.83 in 10.0 mi West 25.3 mph 32.2 mph N/A   Partly Cloudy
5:55 PM 28.4 °F 15.4 °F 8.6 °F 43% 29.84 in 10.0 mi West 19.6 mph 32.2 mph N/A   Partly Cloudy
6:15 PM 26.6 °F 12.4 °F 10.4 °F 51% 29.85 in 10.0 mi West 21.9 mph 31.1 mph N/A   Partly Cloudy
6:55 PM 26.6 °F 11.7 °F 8.6 °F 47% 29.87 in 10.0 mi WNW 24.2 mph 33.4 mph N/A   Partly Cloudy
7:15 PM 26.6 °F 11.7 °F 8.6 °F 47% 29.88 in 10.0 mi West 24.2 mph 31.1 mph N/A   Partly Cloudy
7:35 PM 26.6 °F 11.7 °F 10.4 °F 51% 29.88 in 10.0 mi West 24.2 mph 34.5 mph N/A   Clear
7:55 PM 26.6 °F 12.0 °F 10.4 °F 51% 29.89 in 10.0 mi West 23.0 mph 31.1 mph N/A   Clear
8:15 PM 26.6 °F 13.4 °F 10.4 °F 51% 29.89 in 10.0 mi West 18.4 mph 35.7 mph N/A   Clear
8:35 PM 26.6 °F 11.4 °F 8.6 °F 47% 29.90 in 10.0 mi West 25.3 mph 31.1 mph N/A   Clear
8:55 PM 26.6 °F 11.4 °F 10.4 °F 51% 29.91 in 10.0 mi West 25.3 mph 33.4 mph N/A   Clear
9:15 PM 26.6 °F 12.4 °F 10.4 °F 51% 29.91 in 10.0 mi West 21.9 mph 33.4 mph N/A   Clear
9:35 PM 26.6 °F 11.4 °F 10.4 °F 51% 29.92 in 10.0 mi West 25.3 mph 32.2 mph N/A   Clear
9:55 PM 26.6 °F 12.0 °F 8.6 °F 47% 29.92 in 10.0 mi West 23.0 mph 31.1 mph N/A   Clear
10:15 PM 26.6 °F 12.0 °F 10.4 °F 51% 29.92 in 10.0 mi West 23.0 mph 31.1 mph N/A   Clear
10:35 PM 24.8 °F 9.3 °F 10.4 °F 54% 29.92 in 10.0 mi WNW 24.2 mph 33.4 mph N/A   Clear
10:55 PM 24.8 °F 9.0 °F 12.2 °F 59% 29.92 in 10.0 mi WNW 25.3 mph 28.8 mph N/A   Clear
11:15 PM 24.8 °F 10.0 °F 8.6 °F 50% 29.93 in 10.0 mi WNW 21.9 mph 31.1 mph N/A   Clear
11:55 PM 24.8 °F 10.0 °F 10.4 °F 54% 29.95 in 10.0 mi WNW 21.9 mph 28.8 mph N/A   Mostly Cloudy